الصفحة الرئيسية
METAR-TAF:

METAR-TAF

مطار :

مطار الكفرة

الكفرة, ليبيا

دائرة عرض: 24-13N, خط طول: 023-18E, ارتفاع: 417 متر

METAR: مفقودة

زمن: 20:23 (18:23 UTC)

توقعات

تاريخ ووقت الإصدار 13ساعات و 23 دقيقة قبل الساعة 05:00UTC
التوقعات صالحة من01 الساعة 06 UTC إلى 02 الساعة 06 UTC
ريح 10 عقدة من الشمال/الشمال الشرقي
الرؤية 10 كم أو أكثر
الغيوم لا تقل 1500 م ولا وجود لمزنة ركامية السحاب الأسود

TAF: HLKF 010500Z 0106/0206 03010KT CAVOK

أرصاد الطقس والتوقعات من أكثر من 4000 مطار (تقارير الطقس للمطار METAR والتنبؤ بالطقس بالمطارTAF).

المحطات المتاحة هي النقط الصفراء والحمراء على الخريطة.

حرك المؤشر فوق النقطة لمعرفة اسم المحطة.

ثم انقر لمعرفة أرصاد وتوقعات الطقس.

لتغيير الخارطة: اضغط على الأزرار الخضراء مع رمز الصليب الأسود للتكبير. على الزر الأخضر مع شرطة للتصغير، أو على الأسهم الخضراء للخرائط المجاورة.


METAR-TAF: